sat.trackr.live / text

‹ back to catalog

STARLINK-4761

NORAD 53830 · 2022-114N

PAYLOAD ACTIVE UNKNOWN

§ Identity

Operator
Country
US
Launch date
2022-09-19
Launch site
AFETR
Launch vehicle
Mass (kg)
RCS (m²)

Purposes: comms

External: N2YO · Heavens-Above · Gunter

§ Orbital elements

Epoch: 2026-05-24T20:44:56.731200Z

Period
95.44 min
Inclination
53.2129°
Eccentricity
0.0001674
Mean motion
15.08825516 rev/d
Perigee alt
538.6 km
Apogee alt
540.9 km
Semi-major
6,917.9 km
B*
1.2684e-4
RAAN
321.9862°
Arg perigee
79.3881°
Mean anomaly
280.7299°
Rev number
20,433

§ Raw data

STARLINK-47611 53830U 22114N   26144.86454550  .00001730  00000+0  12684-3 0  99972 53830  53.2129 321.9862 0001674  79.3881 280.7299 15.08825516204338

JSON: /api/v1/satellites/53830 · /tle

For live sub-satellite position, see the globe view (requires WebGL).

§ Visibility from observer

Set your observer location to see the next 7 days of passes ≥ 10°. The values pass through the URL so the page stays shareable.

No JS? Fill the form by hand. The geolocation button needs JavaScript.